Showing default

QUBE, 60476

Orbit data source: Space-Track

QUBE, 60476 is a payload satellite owned by ZfT (DE) in SSO that was launched on Fri, 16 Aug 2024 UTC via an FALCON 9 launch vehicle from the Air Force Western Test Range (AFWTR). Payload-class satellites include a variety of spacecraft equipped with specific instruments for various scientific and technological missions. These include communications satellites like Starlink; space stations such as the ISS; scientific satellites like the Hubble; Earth observation satellites from companies like Planet Labs, Umbra, and HawkEye 360; GPS; miniature CubeSats for education and research; and military/defense satellites.

Loading next visibility...
Identifier
60476, 2024-149J
Orbit
SSO
Country
Flag of DEDE / GER
Related business
Manufacturer
ZfT
Mission
Operational Commercial Communications
Bus & Motor
CUBESAT 3U, Unknown motor
Mass
4 kg wet, 4 kg dry
Launch date (UTC)
2024-08-16 (2 years ago)
Launch vehicle
FALCON 9
Launch site
Air Force Western Test Range (AFWTR)
Object type
Payload
Rocket body
Debris
Shape & HBR
Box, 0.1 m
Radar Cross Section
0.035 m², Medium (>0.1 m² and < 1m²)

Expand to show TLE details & history
Last TLE update: 1 day ago

TLE from 1 day ago
0 QUBE
1 60476U 24149J   26173.86451669  .00021148  00000-0  41413-3 0  9999
2 60476  97.3773 260.4081 0002476 175.4899 184.6374 15.47418498103349
Epoch: 2026-06-22T20:44Z
TLE epoch observation values (Epoch: 2026-06-22T20:44:54.242Z)
Latitude
0.00003°
Longitude
38.13777°
Altitude
429.088 km
Speed
7.653 km/s
True Right ascension
17h 21m 37s
True Declination
0° 00' 00"
Sunlit
Object was in full shadow at epoch
Visualization orbit readout
Latitude
Unknown
Longitude
Unknown
Altitude
Unknown
Speed
Unknown
Apparent Right ascension
Unknown
Apparent Declination
Unknown
Sunlit
N/A
Visualization observer readout
Local Sidereal Time
10:52:20
Azimuth
Unknown
Elevation
Unknown
Doppler factor
Unknown
Orbital elements
Apogee altitude
422.893 km
Perigee altitude
419.526 km
Semi-major axis
6,799.346 km
Eccentricity
0.00025
Inclination
97.3773°
RAAN
260.4081°
Arg. of periapsis
175.4899°
True anomaly
184.63511°
Mean anomaly
184.6374°
Eccentric anomaly
184.63625°
Mean motion
3.87117 °/min
Orbital period
93 mins
BSTAR
0.00041413
Loading maneuver chart data...
Computing Atmospheric mass density...
Loading historical data...
Loading historical data...
Loading historical data...
Loading historical data...
Loading historical data...
Loading historical data...
Loading historical data...

Documentation

Showing up to 5 results
|